Tracking 26218 objects as of 26-Sep-2022
HD Live streaming from Space Station
objects crossing your sky now

INTELSAT 706

Track INTELSAT 706 now!
INTELSAT 706 is classified as:


NORAD ID: 23571
Int'l Code: 1995-023A
Perigee: 36,129.5 km
Apogee: 36,148.3 km
Inclination: 8.1 °
Period: 1,453.8 minutes
Semi major axis: 42509 km
RCS: 22.4876 m2 (large)
Launch date: May 17, 1995
Source: International Telecommunications Satellite Organization (ITSO)
Launch site: FRENCH GUIANA (FRGUI)

42 C-band, 36 Ku-band; broadcasting, business services, direct-to-home TV broadcasting, telecommunications, VSATnetworks Atlantic Ocean region.
aabbcc
Your satellite tracking list
Your tracking list is empty




NASA's NSSDC Master Catalog

Two Line Element Set (TLE):
1 23571U 95023A   22268.63410212 -.00000040  00000-0  00000-0 0  9991
2 23571   8.1499  55.1333 0002220 106.4349 270.2238  0.99053022 99859
Source of the keplerian elements: AFSPC